Albany, NY

6:59 PM EDT on April 26, 2017 (GMT -0400)
Albany International

Weather History for KALB - September, 2011

Change the Weather History Date:

Monday, September 5, 2011

  Actual Average Record
Temperature  
Mean Temperature 68 °F 66 °F  
Max Temperature 73 °F 76 °F 91 °F (1973)
Min Temperature 62 °F 56 °F 37 °F (1963)
Degree Days  
Heating Degree Days 0 2  
Month to date heating degree days 0 9  
Since 1 July heating degree days 2 32  
Cooling Degree Days 3 3  
Month to date cooling degree days 33 17  
Year to date cooling degree days 740 560  
Growing Degree Days 18 (Base 50)    
Moisture  
Dew Point 66 °F    
Average Humidity 92    
Maximum Humidity 97    
Minimum Humidity 87    
Precipitation  
Precipitation 0.92 in 0.10 in 1.54 in (1953)
Month to date precipitation 1.06 0.50  
Year to date precipitation 38.96 26.65  
Sea Level Pressure  
Sea Level Pressure 29.81 in    
Wind  
Wind Speed 5 mph (SW)    
Max Wind Speed 14 mph    
Max Gust Speed 17 mph    
Visibility 7 miles    
Events Rain , Thunderstorm    
T = Trace of Precipitation, MM = Missing Value Source: NWS Daily Summary

Daily Weather History Graph

Daily Weather History Graph

Search for Another Location

Airport or City:

Trip Planner

Search our weather history database for the weather conditions in past years. The results will help you decide how hot, cold, wet, or windy it might be!

Date:

Astronomy

Sep. 05, 2011 Rise Set
Actual Time 6:23 AM EDT 7:23 PM EDT
Civil Twilight 5:55 AM EDT 7:52 PM EDT
Nautical Twilight 5:20 AM EDT 8:26 PM EDT
Astronomical Twilight 4:44 AM EDT 9:02 PM EDT
Moon 3:13 PM EDT (9/5) No Moon Set
Length of Visible Light 13h 57m
Length of Day
12h 59m
First Quarter, 60% of the Moon is Illuminated
Sep 5
First Quarter
Sep 12
Full
Sep 20
Last Quarter
Sep 27
New
Oct 3
First Quarter

Hourly Weather History & Observations

Time (EDT) Temp. Dew Point Humidity Pressure Visibility Wind Dir Wind Speed Gust Speed Precip Events Conditions
12:17 AM 69.8 °F 69.8 °F 100% 29.79 in 3.0 mi SSW 3.5 mph - N/A   Mostly Cloudy
12:51 AM 71.1 °F 69.1 °F 93% 29.80 in 4.0 mi SSW 6.9 mph - 0.03 in Rain Light Rain
12:55 AM 71.6 °F 69.8 °F 94% 29.81 in 4.0 mi SW 9.2 mph - 0.01 in Rain , Thunderstorm Light Thunderstorms and Rain
1:20 AM 71.6 °F 68.0 °F 88% 29.82 in 2.5 mi South 6.9 mph - 0.06 in Rain , Thunderstorm Heavy Thunderstorms and Rain
1:47 AM 69.8 °F 68.0 °F 94% 29.77 in 3.0 mi Calm Calm - 0.16 in Rain , Thunderstorm Light Thunderstorms and Rain
1:51 AM 70.0 °F 68.0 °F 93% 29.77 in 3.0 mi ESE 3.5 mph - 0.17 in Rain , Thunderstorm Thunderstorms and Rain
1:58 AM 69.8 °F 69.8 °F 100% 29.78 in 4.0 mi SE 4.6 mph - N/A Rain Light Rain
2:51 AM 70.0 °F 68.0 °F 93% 29.80 in 2.5 mi SSW 5.8 mph - 0.03 in Rain Rain
2:58 AM 69.8 °F 68.0 °F 94% 29.82 in 4.0 mi SW 8.1 mph - 0.01 in Rain Light Rain
3:01 AM 69.8 °F 68.0 °F 94% 29.82 in 2.0 mi SW 9.2 mph - 0.02 in Rain Light Rain
3:07 AM 69.8 °F 68.0 °F 94% 29.81 in 4.0 mi SSW 8.1 mph - 0.04 in Rain Light Rain
3:19 AM 69.8 °F 68.0 °F 94% 29.78 in 3.0 mi East 6.9 mph - 0.05 in Rain , Thunderstorm Thunderstorms and Rain
3:38 AM 69.8 °F 68.0 °F 94% 29.75 in 4.0 mi East 9.2 mph - 0.11 in Rain Light Rain
3:51 AM 69.1 °F 66.9 °F 93% 29.76 in 6.0 mi SE 8.1 mph - 0.12 in Rain Light Rain
4:51 AM 69.1 °F 66.9 °F 93% 29.80 in 7.0 mi Calm Calm - 0.03 in Rain Light Rain
4:58 AM 69.8 °F 66.2 °F 88% 29.80 in 6.0 mi Calm Calm - 0.00 in Rain Light Rain
5:10 AM 68.0 °F 66.2 °F 94% 29.80 in 6.0 mi SSW 3.5 mph - 0.00 in   Overcast
5:51 AM 68.0 °F 66.9 °F 96% 29.77 in 7.0 mi Calm Calm - 0.01 in Rain Light Rain
6:51 AM 68.0 °F 66.9 °F 96% 29.78 in 6.0 mi Calm Calm - 0.00 in Rain Light Rain
7:22 AM 68.0 °F 66.2 °F 94% 29.79 in 7.0 mi SSW 4.6 mph - N/A   Overcast
7:51 AM 69.8 °F 66.2 °F 88% 29.79 in 10.0 mi SSE 6.9 mph - N/A   Overcast
8:51 AM 70.0 °F 66.9 °F 90% 29.79 in 10.0 mi South 6.9 mph - N/A   Overcast
9:43 AM 69.8 °F 68.0 °F 94% 29.80 in 10.0 mi South 5.8 mph - N/A   Overcast
9:51 AM 70.0 °F 68.0 °F 93% 29.80 in 10.0 mi South 4.6 mph - N/A   Overcast
10:51 AM 71.1 °F 68.0 °F 90% 29.80 in 10.0 mi SSE 6.9 mph - 0.01 in Rain Light Rain
11:51 AM 72.0 °F 69.1 °F 91% 29.80 in 10.0 mi SSW 4.6 mph - 0.00 in   Overcast
12:51 PM 72.0 °F 69.1 °F 91% 29.80 in 8.0 mi South 4.6 mph - 0.00 in Rain Light Rain
1:51 PM 72.0 °F 70.0 °F 93% 29.78 in 8.0 mi South 4.6 mph - 0.02 in Rain Light Rain
2:10 PM 71.6 °F 69.8 °F 94% 29.78 in 10.0 mi South 3.5 mph - 0.00 in Rain Light Rain
2:51 PM 72.0 °F 69.1 °F 91% 29.78 in 10.0 mi South 5.8 mph - 0.00 in   Overcast
3:13 PM 71.6 °F 69.8 °F 94% 29.77 in 10.0 mi South 6.9 mph - N/A   Overcast
3:36 PM 73.4 °F 69.8 °F 88% 29.77 in 10.0 mi South 5.8 mph - N/A   Overcast
3:51 PM 73.0 °F 69.1 °F 87% 29.77 in 10.0 mi South 5.8 mph - N/A   Overcast
4:51 PM 68.0 °F 64.9 °F 90% 29.79 in 10.0 mi NW 6.9 mph - N/A   Overcast
5:19 PM 68.0 °F 64.4 °F 88% 29.79 in 10.0 mi West 6.9 mph - 0.00 in   Overcast
5:33 PM 66.2 °F 62.6 °F 88% 29.80 in 10.0 mi West 9.2 mph - 0.00 in   Overcast
5:51 PM 64.9 °F 62.1 °F 90% 29.81 in 10.0 mi WNW 10.4 mph - 0.00 in Rain Light Rain
6:16 PM 64.4 °F 62.6 °F 94% 29.81 in 10.0 mi Calm Calm - 0.00 in   Overcast
6:51 PM 64.9 °F 63.0 °F 93% 29.82 in 10.0 mi NW 5.8 mph - 0.00 in   Overcast
7:34 PM 64.4 °F 62.6 °F 94% 29.84 in 10.0 mi NW 4.6 mph - 0.00 in   Overcast
7:51 PM 64.9 °F 63.0 °F 93% 29.85 in 10.0 mi NW 4.6 mph - 0.00 in   Overcast
7:56 PM 64.4 °F 62.6 °F 94% 29.85 in 10.0 mi NW 5.8 mph - N/A   Overcast
8:29 PM 62.6 °F 62.6 °F 100% 29.86 in 2.5 mi NW 10.4 mph - 0.07 in Rain Heavy Rain
8:39 PM 62.6 °F 62.6 °F 100% 29.86 in 5.0 mi NNW 6.9 mph - 0.10 in Rain Light Rain
8:51 PM 63.0 °F 61.0 °F 93% 29.87 in 7.0 mi NNW 8.1 mph - 0.11 in   Light Drizzle
9:27 PM 62.6 °F 62.6 °F 100% 29.87 in 10.0 mi North 3.5 mph - 0.00 in   Light Drizzle
9:51 PM 63.0 °F 62.1 °F 97% 29.88 in 5.0 mi NNW 4.6 mph - 0.01 in Rain Rain
10:03 PM 62.6 °F 62.6 °F 100% 29.88 in 4.0 mi NNW 4.6 mph - 0.02 in Rain Light Rain
10:15 PM 64.4 °F 62.6 °F 94% 29.88 in 8.0 mi NNW 6.9 mph - 0.03 in Rain Light Rain
10:51 PM 64.0 °F 62.1 °F 93% 29.87 in 5.0 mi NNW 5.8 mph - 0.06 in Rain Light Rain
11:26 PM 62.6 °F 60.8 °F 94% 29.89 in 5.0 mi WNW 9.2 mph - 0.03 in Rain Rain
11:46 PM 62.6 °F 60.8 °F 94% 29.89 in 4.0 mi WNW 5.8 mph - N/A Rain Rain
11:51 PM 63.0 °F 61.0 °F 93% 29.89 in 4.0 mi NW 3.5 mph - 0.09 in Rain Rain